Waarnemingen

Advertentie
Mijn weer
Asturias/Aviles, Spanje (8011): temperatuur & dauwpunt: 15.01.2020 04:00:00 - 21.01.2020 04:00:00 (CET)Asturias/Aviles, Spanje (8011): windsnelheid: 15.01.2020 04:00:00 - 21.01.2020 04:00:00 (CET)Asturias/Aviles, Spanje (8011): windrichting: 15.01.2020 04:00:00 - 21.01.2020 04:00:00 (CET)Asturias/Aviles, Spanje (8011): luchtdruk: 15.01.2020 04:00:00 - 21.01.2020 04:00:00 (CET)Asturias/Aviles, Spanje (8011): zicht: 15.01.2020 04:00:00 - 21.01.2020 04:00:00 (CET)
Datum & Tijd tt [°C] td [°C] ff [km/u] ff [kn] dd ppp [hPa] vv [km]
21.01.2020 04:00:00 5,1 4,1 13 7 ZO 1034,0 -
21.01.2020 03:00:00 5,3 3,5 15 8 ZO 1034,6 -
21.01.2020 02:00:00 5,3 3,1 9 5 ZZO 1034,7 -
21.01.2020 01:00:00 5,4 2,7 13 7 Z 1035,2 -
21.01.2020 00:00:00 5,6 2,1 15 8 ZZO 1035,4 -
20.01.2020 23:00:00 6,0 0,3 11 6 ZO 1035,6 -
20.01.2020 22:00:00 6,8 0,2 15 8 O 1035,9 20
20.01.2020 21:00:00 6,8 -0,9 13 7 O 1036,0 -
20.01.2020 20:00:00 6,7 -0,9 13 7 O 1036,1 -
20.01.2020 19:00:00 6,6 -0,5 15 8 O 1035,6 20
20.01.2020 18:00:00 7,0 -0,4 13 7 O 1035,1 -
20.01.2020 17:00:00 7,1 -0,3 18 10 O 1035,2 -
20.01.2020 16:00:00 7,7 -0,1 26 14 O 1035,2 20
20.01.2020 15:00:00 8,0 0,2 29 16 O 1035,5 -
20.01.2020 14:00:00 8,1 1,0 31 17 O 1036,0 -
20.01.2020 13:00:00 8,4 0,1 29 16 O 1036,9 20
20.01.2020 12:00:00 6,5 1,2 24 13 OZO 1038,1 -
20.01.2020 11:00:00 7,0 0,5 24 13 O 1037,8 -
20.01.2020 10:00:00 6,9 -0,1 26 14 O 1037,5 20
20.01.2020 09:00:00 6,2 1,9 29 16 O 1037,1 -
20.01.2020 08:00:00 7,2 -0,3 24 13 O 1036,8 -
20.01.2020 07:00:00 6,3 1,3 22 12 OZO 1036,6 15
20.01.2020 06:00:00 7,2 0,8 24 13 O 1036,5 -
20.01.2020 05:00:00 6,6 1,9 24 13 O 1037,1 -
20.01.2020 04:00:00 6,7 1,7 22 12 O 1037,5 -
20.01.2020 03:00:00 6,3 1,4 24 13 OZO 1038,0 -
20.01.2020 02:00:00 6,9 1,2 29 16 O 1038,8 -
20.01.2020 01:00:00 8,3 1,4 31 17 O 1039,3 -
20.01.2020 00:00:00 7,9 1,1 31 17 O 1039,3 -
19.01.2020 23:00:00 7,2 2,0 24 13 O 1039,6 -
19.01.2020 22:00:00 8,2 0,5 26 14 O 1039,4 30
19.01.2020 21:00:00 8,2 0,9 24 13 O 1039,5 -
19.01.2020 20:00:00 8,1 1,0 21 11 O 1039,0 -
19.01.2020 19:00:00 8,0 0,7 21 11 O 1038,5 -
19.01.2020 18:00:00 8,5 0,7 22 12 O 1038,4 -
19.01.2020 17:00:00 8,9 1,5 28 15 O 1038,0 -
19.01.2020 16:00:00 9,0 1,9 22 12 O 1037,8 25
19.01.2020 15:00:00 9,6 2,3 22 12 O 1037,7 -
19.01.2020 14:00:00 10,3 2,5 22 12 O 1037,9 -
19.01.2020 13:00:00 9,2 2,7 21 11 O 1038,5 25
19.01.2020 12:00:00 9,6 3,0 22 12 ONO 1038,4 -
19.01.2020 11:00:00 8,4 2,6 28 15 O 1037,6 -
19.01.2020 10:00:00 8,5 4,3 22 12 ONO 1036,8 20
19.01.2020 09:00:00 9,4 3,1 18 10 O 1035,2 -
19.01.2020 08:00:00 9,2 3,4 21 11 ONO 1033,8 -
19.01.2020 07:00:00 9,2 3,4 22 12 ONO 1032,5 25
19.01.2020 06:00:00 9,6 4,2 26 14 ONO 1031,4 -
19.01.2020 05:00:00 9,7 4,8 21 11 ONO 1030,2 -
19.01.2020 04:00:00 9,7 5,3 24 13 ONO 1029,3 -
19.01.2020 03:00:00 9,2 7,0 26 14 ONO 1027,8 -
19.01.2020 02:00:00 9,3 9,0 21 11 ONO 1025,9 -
19.01.2020 01:00:00 9,0 5,2 13 7 WZW 1024,1 -
19.01.2020 00:00:00 9,1 5,5 11 6 ZW 1023,0 -
18.01.2020 23:00:00 9,2 5,6 13 7 WZW 1021,9 -
18.01.2020 22:00:00 10,2 5,4 22 12 W 1021,4 20
18.01.2020 21:00:00 9,5 4,9 18 10 WZW 1020,8 -
18.01.2020 20:00:00 9,1 5,1 16 9 WZW 1020,4 -
18.01.2020 19:00:00 9,0 5,0 16 9 ZW 1020,0 20
18.01.2020 18:00:00 9,2 5,6 31 17 W 1020,0 -
18.01.2020 17:00:00 11,4 5,5 22 12 W 1019,0 -
18.01.2020 16:00:00 11,4 6,5 41 22 WNW 1018,5 25
18.01.2020 15:00:00 9,3 8,5 22 12 W 1017,9 -
18.01.2020 14:00:00 10,4 7,3 5 3 WZW 1016,1 -
18.01.2020 13:00:00 11,4 6,2 5 3 ZZO 1017,4 20
18.01.2020 12:00:00 10,0 5,5 0 0 N 1018,9 -
18.01.2020 11:00:00 9,3 4,9 11 6 ZO 1019,1 -
18.01.2020 10:00:00 7,9 3,8 4 2 Z 1019,9 25
18.01.2020 09:00:00 7,0 3,2 11 6 ZZW 1021,0 -
18.01.2020 08:00:00 7,3 3,0 11 6 ZZW 1022,5 -
18.01.2020 07:00:00 6,9 3,9 4 2 ZZO 1023,6 20
18.01.2020 06:00:00 6,8 3,4 8 4 Z 1024,6 -
18.01.2020 05:00:00 6,7 3,5 8 4 Z 1025,8 -
18.01.2020 04:00:00 6,7 4,0 11 6 ZZO 1026,9 -
18.01.2020 03:00:00 7,0 3,8 11 6 ZZW 1028,1 -
18.01.2020 02:00:00 6,7 3,8 9 5 ZZO 1028,6 -
18.01.2020 01:00:00 7,2 4,1 8 4 Z 1029,7 -
18.01.2020 00:00:00 7,2 4,2 9 5 ZZW 1030,2 -
17.01.2020 23:00:00 7,2 4,5 8 4 Z 1030,9 -
17.01.2020 22:00:00 6,1 4,3 9 5 ZZO 1031,4 20
17.01.2020 21:00:00 6,4 4,4 8 4 Z 1031,9 -
17.01.2020 20:00:00 6,5 4,8 4 2 ZO 1031,8 -
17.01.2020 19:00:00 7,6 4,5 4 2 Z 1031,9 25
17.01.2020 18:00:00 9,3 5,1 9 5 WNW 1031,6 -
17.01.2020 17:00:00 9,8 5,4 28 15 WNW 1031,4 -
17.01.2020 16:00:00 10,7 4,6 22 12 WNW 1030,6 30
17.01.2020 15:00:00 12,2 4,4 24 13 WNW 1030,2 -
17.01.2020 14:00:00 12,1 3,6 18 10 W 1030,5 -
17.01.2020 13:00:00 11,1 3,3 21 11 WZW 1030,6 30
17.01.2020 12:00:00 10,2 3,8 18 10 ZW 1030,7 -
17.01.2020 11:00:00 8,6 4,0 22 12 W 1030,2 -
17.01.2020 10:00:00 8,8 3,2 13 7 ZW 1028,9 30
17.01.2020 09:00:00 7,9 3,7 18 10 WZW 1027,9 -
17.01.2020 08:00:00 9,0 3,4 24 13 W 1026,7 -
17.01.2020 07:00:00 8,9 3,4 15 8 WZW 1025,3 25
17.01.2020 06:00:00 9,7 4,2 21 11 WZW 1024,4 -
17.01.2020 05:00:00 9,9 4,1 18 10 WZW 1023,6 -
17.01.2020 04:00:00 9,9 4,8 16 9 ZW 1023,0 -
17.01.2020 03:00:00 9,7 5,8 29 16 W 1022,4 -
17.01.2020 02:00:00 11,5 4,5 13 7 WZW 1021,3 -
17.01.2020 01:00:00 12,2 4,0 22 12 W 1020,7 -
17.01.2020 00:00:00 11,8 5,0 18 10 ZW 1019,8 -
16.01.2020 23:00:00 11,1 6,0 9 5 ZW 1019,3 -
16.01.2020 22:00:00 10,8 6,0 26 14 ZZW 1018,2 10
16.01.2020 21:00:00 10,4 8,0 18 10 W 1018,0 -
16.01.2020 20:00:00 10,0 8,4 16 9 WZW 1017,9 -
16.01.2020 19:00:00 11,4 11,2 24 13 WNW 1017,4 3,0
16.01.2020 18:00:00 12,2 10,4 11 6 NW 1015,4 -
16.01.2020 17:00:00 13,9 9,4 11 6 NW 1014,3 -
16.01.2020 16:00:00 18,7 5,3 15 8 WZW 1013,6 12
16.01.2020 15:00:00 20,1 6,3 15 8 WZW 1013,6 -
16.01.2020 14:00:00 19,2 8,0 4 2 ZW 1014,0 -
16.01.2020 13:00:00 19,0 8,0 15 8 ZO 1014,9 20
16.01.2020 12:00:00 19,7 9,0 13 7 ZZO 1015,7 -
16.01.2020 11:00:00 18,0 8,0 8 4 Z 1016,3 -
16.01.2020 10:00:00 13,6 6,6 8 4 WZW 1016,6 15
16.01.2020 09:00:00 14,7 6,3 9 5 Z 1016,0 -
16.01.2020 08:00:00 13,9 6,0 13 7 ZZW 1016,2 -
16.01.2020 07:00:00 12,2 5,5 15 8 ZZW 1015,8 10
16.01.2020 06:00:00 11,1 5,8 11 6 ZZW 1016,2 -
16.01.2020 05:00:00 9,9 5,8 11 6 ZZW 1016,6 -
16.01.2020 04:00:00 8,6 6,2 8 4 Z 1017,5 -
16.01.2020 03:00:00 10,0 6,6 16 9 ZZW 1017,9 -
16.01.2020 02:00:00 8,5 7,0 9 5 ZZW 1018,3 -
16.01.2020 01:00:00 8,5 7,1 9 5 Z 1018,7 -
16.01.2020 00:00:00 8,3 7,9 15 8 ZZW 1019,2 -
15.01.2020 23:00:00 7,4 7,3 8 4 Z 1019,7 -
15.01.2020 22:00:00 6,0 5,8 11 6 ZO 1020,4 18
15.01.2020 21:00:00 6,8 6,4 9 5 ZO 1021,1 -
15.01.2020 20:00:00 7,4 6,5 11 6 ZO 1021,3 -
15.01.2020 19:00:00 8,6 6,4 13 7 OZO 1021,2 20
15.01.2020 18:00:00 10,2 6,7 11 6 O 1020,9 -
15.01.2020 17:00:00 11,5 7,3 4 2 ONO 1020,7 -
15.01.2020 16:00:00 12,1 8,2 2 1 O 1020,0 25
15.01.2020 15:00:00 12,6 9,6 5 3 NNW 1019,0 -
15.01.2020 14:00:00 12,5 9,5 8 4 NNW 1019,0 -
15.01.2020 13:00:00 12,3 10,4 13 7 WNW 1019,0 20
15.01.2020 12:00:00 10,1 9,9 18 10 WNW 1019,3 -
15.01.2020 11:00:00 10,5 9,7 21 11 W 1018,0 -
15.01.2020 10:00:00 10,5 10,3 8 4 NNW 1016,6 8
15.01.2020 09:00:00 10,4 9,8 29 16 W 1015,5 -
15.01.2020 08:00:00 10,9 9,4 44 24 WNW 1013,4 -
15.01.2020 07:00:00 15,7 5,0 28 15 WZW 1009,9 20
15.01.2020 06:00:00 11,2 4,9 5 3 ZZW 1009,5 -
15.01.2020 05:00:00 11,8 4,5 11 6 ZZO 1009,0 -
15.01.2020 04:00:00 13,6 4,7 9 5 ZZO 1008,9 -

tt = temperatuur
td = dauwpunt
ff = windsnelheid
dd = windrichting
ppp = luchtdruk
vv = zicht

Weerstations in de omgeving